Regional Weather Roundup
Issued by NWS Boston, MA

Current Version | Previous Version | Text Only | Print | Product List | Glossary Off
Versions: 1 2 3 4 5 6 7 8 9 10 11 12 13 14 15 16 17 18 19 20 21 22 23 24 25 26 27 28 29 30 31 32 33 34 35 36 37 38 39 40 41 42 43 44 45 46 47 48 49 50
000 ASUS41 KBOX 260510 RWRBOX REGIONAL WEATHER ROUNDUP NATIONAL WEATHER SERVICE TAUNTON MA 100 AM EDT MON JUN 26 2017 NOTE: "FAIR" INDICATES FEW OR NO CLOUDS BELOW 12,000 FEET WITH NO SIGNIFICANT WEATHER AND/OR OBSTRUCTIONS TO VISIBILITY. MAZALL-260600- EASTERN MASSACHUSETTS CITY SKY/WX TMP DP RH WIND PRES REMARKS BOSTON MOCLDY 66 57 72 W8 29.93S BEVERLY LGT RAIN 63 60 90 W6 29.92S LAWRENCE CLOUDY 65 60 84 SW6 29.95R BEDFORD CLOUDY 62 57 83 NW6 29.91F BLUE HILL N/A 61 54 77 W10 29.94S NORWOOD PTCLDY 63 58 83 W3 29.93F MARSHFIELD PTCLDY 63 59 88 W6 29.93S PLYMOUTH CLEAR 63 58 83 W6 29.94S TAUNTON CLEAR 59 56 89 CALM 29.94S NEW BEDFORD PTCLDY 63 57 81 CALM 29.93S $$ MAZALL-260600- CAPE COD AND THE ISLANDS CITY SKY/WX TMP DP RH WIND PRES REMARKS FALMOUTH PTCLDY 64 61 88 NW3 29.95S HYANNIS MOCLDY 67 60 78 NW3 29.92S CHATHAM MOCLDY 68 60 75 W3 29.94R PROVINCETOWN CLEAR 62 56 80 W8 29.93F NANTUCKET CLEAR 62 62 100 SW6 29.93F MARTHAS VNYRD MOCLDY 66 60 81 NW8G16 29.95R $$ MAZALL-260600- CENTRAL AND WESTERN MASSACHUSETTS CITY SKY/WX TMP DP RH WIND PRES REMARKS WORCESTER CLOUDY 59 55 87 W12 29.97F FITCHBURG CLOUDY 63 58 83 N5 29.96F ORANGE LGT RAIN 59 59 100 E3 29.96F FOG SPRINGFIELD DRIZZLE 61 59 94 CALM 29.96F WESTFIELD LGT RAIN 62 58 86 NW6 N/A NORTH ADAMS CLOUDY 57 55 93 CALM 29.99S PITTSFIELD CLOUDY 56 51 84 S6 29.98F $$ RIZALL-260600- RHODE ISLAND CITY SKY/WX TMP DP RH WIND PRES REMARKS PROVIDENCE MOCLDY 67 59 75 N7 29.96R NEWPORT PTCLDY 65 59 81 NW6 29.94R BLOCK ISLAND CLOUDY 64 61 90 VRB7 29.95R WESTERLY CLEAR 67 60 78 NW5 29.95R $$ CTZALL-260600- CONNECTICUT CITY SKY/WX TMP DP RH WIND PRES REMARKS BRADLEY INTL PTCLDY 62 54 74 N6 29.98S HARTFORD CLEAR 65 55 70 N6 29.97R BRIDGEPORT PTCLDY 70 55 59 N14 29.97R DANBURY CLEAR 64 51 62 N3 30.01R GROTON PTCLDY 66 59 78 N7 29.94R NEW HAVEN NOT AVBL CHESTER FAIR 66 59 77 NW6 29.97R MERIDEN PTCLDY 66 54 65 N6 29.98R WILLIMANTIC CLEAR 65 59 81 NW3 29.97R OXFORD PTCLDY 63 48 59 N9 30.01R $$ MEZ002-015-021-024-NHZ003-005-008-011-012-014-VTZ005-008-260600- NORTHERN NEW ENGLAND CITY SKY/WX TMP DP RH WIND PRES REMARKS PORTLAND ME CLOUDY 63 57 81 CALM 29.88F BANGOR ME CLOUDY 59 56 89 W3 29.86F CONCORD NH MOCLDY 66 51 58 SW5 29.93R MANCHESTER NH CLOUDY 63 57 81 S6 29.93R NASHUA NH CLOUDY 62 59 90 W6 29.95R PORTSMOUTH NH NOT AVBL JAFFREY NH MOCLDY 60 57 89 S3 29.96F KEENE NH CLOUDY 62 54 74 S3 29.95F BURLINGTON VT PTCLDY 60 53 77 SW7 29.91R MT. WASHINGTON PTCLDY 39 37 93 W40 N/A WCI 26 $$ NYZ052-076-260600- EASTERN NEW YORK CITY SKY/WX TMP DP RH WIND PRES REMARKS ALBANY CLOUDY 60 56 86 CALM 29.99S NEW YORK CITY PTCLDY 72 53 51 N14G23 29.98R $$ ANZALL-260600- MARINE OBSERVATIONS STATION/POSITION TIME TEMP WIND PRES VSBY WAVE AIR SEA DIR/SP/G HT/PER (UTC) (F) (DEG/KT/KT) (MB) (MI) (FT/S) BOSTON BUOY 0350 60 58 240/ 8/ 10 1013.0 2/ 7 BUZZARDS BAY 0400 65 230/ 12/ 13 1013.7F NANTUCKET SOUND 0450 67 1013.3R 1/ 7 MASS BAY-STELLWA 0404 62 60 260/ 6/ 8 1011.6F 2/ 3 ISLE OF SHOALS 0400 68 260/ 10/ 10 1011.8F S OF BLOCK IS 0455 64 N/A 3/ 7 $$ ......................KEY......................... SKY/WX - SKY CONDITION/PRESENT WEATHER TMP - TEMPERATURE IN FAHRENHEIT DWPT - DEWPOINT IN FAHRENHEIT RH - RELATIVE HUMIDITY IN PERCENT WIND - DIRECTION AND SPEED IN MPH PRES - MEAN SEA LEVEL PRESSURE IN INCHES OF HG WCI - WIND CHILL INDEX VSB - VISIBILITY IN MILES HX - HEAT INDEX TC - TEMPERATURE IN CELSIUS VRB - VARIABLE WIND DIRECTION N/A - NOT AVAILABLE

USA.gov is the U.S. government's official web portal to all federal, state and local government web resources and services.